Tracking 22993 objects as of 10-May-2021
HD Live streaming from Space Station
objects crossing your sky now

SL-8 R/B

Track SL-8 R/B now!
10-day predictions


NORAD ID: 17160
Int'l Code: 1986-093B
Perigee: 960.9 km
Apogee: 1,019.3 km
Inclination: 82.9 °
Period: 104.8 minutes
Semi major axis: 7361 km
RCS: 4.5547 m2 (large)
Launch date: November 24, 1986
Source: Commonwealth of Independent States (former USSR) (CIS)
Launch site: PLESETSK MISSILE AND SPACE COMPLEX (PKMTR)

Note: This is a ROCKET BODY
aabbcc
Your satellite tracking list
Your tracking list is empty




NASA's NSSDC Master Catalog

Two Line Element Set (TLE):
1 17160U 86093B   21129.93229424 -.00000011  00000-0 -28129-4 0  9991
2 17160  82.9266  88.8192 0039637 141.9968 279.2904 13.74643868728068
Source of the keplerian elements: AFSPC